Tracking 23731 objects as of 26-Sep-2021
HD Live streaming from Space Station
objects crossing your sky now

STARLINK-1320

Track STARLINK-1320 now!
10-day predictions
STARLINK-1320 is classified as:


NORAD ID: 45572
Int'l Code: 2020-025AT
Perigee: 553.1 km
Apogee: 555.7 km
Inclination: 53.1 °
Period: 95.6 minutes
Semi major axis: 6925 km
RCS: Unknown
Launch date: April 22, 2020
Source: United States (US)
Launch site: AIR FORCE EASTERN TEST RANGE (AFETR)
aabbcc
Your satellite tracking list
Your tracking list is empty




NASA's NSSDC Master Catalog

Two Line Element Set (TLE):
1 45572U 20025AT  21268.46761146  .00000253  00000-0  35883-4 0  9997
2 45572  53.0549 177.0245 0001869  76.4437 283.6760 15.06393716 80407
Source of the keplerian elements: AFSPC